EST,Max TemperatureF,Mean TemperatureF,Min TemperatureF,Max Dew PointF,MeanDew PointF,Min DewpointF,Max Humidity, Mean Humidity, Min Humidity, Max Sea Level PressureIn, Mean Sea Level PressureIn, Min Sea Level PressureIn, Max VisibilityMiles, Mean VisibilityMiles, Min VisibilityMiles, Max Wind SpeedMPH, Mean Wind SpeedMPH, Max Gust SpeedMPH,PrecipitationIn, CloudCover, Events, WindDirDegrees
2013-1-1,50,44,37,48,43,36,100,95,76,30.09,30.03,29.97,10,6,2,12,5,,0.00,8,,87
2013-1-2,35,34,32,36,32,30,100,94,87,30.22,30.15,30.08,10,6,3,10,7,,0.00,8,,353
2013-1-3,39,32,24,30,27,23,100,84,56,30.39,30.28,30.18,10,8,5,8,4,,0.00,4,,349
2013-1-4,42,30,17,27,23,18,100,77,49,30.46,30.40,30.36,10,10,9,9,1,,0.00,0,,350
2013-1-5,46,32,19,37,26,19,100,77,46,30.40,30.33,30.25,10,10,5,7,1,,0.00,3,,257
2013-1-6,46,39,32,37,35,27,100,83,62,30.35,30.24,30.17,10,9,6,12,3,,0.00,6,,269
2013-1-7,53,36,19,32,27,19,100,74,41,30.39,30.33,30.27,10,9,4,8,2,,0.00,0,,20
2013-1-8,57,45,33,43,36,27,82,66,51,30.35,30.28,30.25,10,10,10,14,8,,0.00,0,,148
2013-1-9,59,54,48,55,52,45,100,93,82,30.41,30.35,30.29,10,8,0,13,8,,0.00,7,,126
2013-1-10,64,60,55,59,56,54,94,87,77,30.39,30.27,30.07,10,10,9,22,12,32,0.00,8,,139
2013-1-11,69,66,62,63,60,57,100,85,73,30.13,30.08,30.04,10,10,4,23,14,30,0.00,8,,185
2013-1-12,69,66,64,64,62,57,100,84,73,30.10,30.04,29.96,10,10,5,14,7,,0.00,8,,181
2013-1-13,68,52,37,63,57,36,100,89,73,30.17,30.00,29.91,10,8,2,16,10,22,0.00,7,,171
2013-1-14,39,36,32,37,34,30,100,96,93,30.30,30.21,30.14,10,7,2,15,9,,0.00,8,,5
2013-1-15,39,36,33,39,35,34,100,99,93,30.19,30.08,29.95,10,5,2,9,6,,0.00,8,,7
2013-1-16,37,35,33,37,35,34,100,98,93,30.10,30.04,29.94,10,9,2,8,3,,0.00,8,,347
2013-1-17,39,36,32,36,31,28,93,83,70,30.36,30.03,29.92,10,10,4,20,8,,0.00,6,,1
2013-1-18,50,37,24,32,28,25,100,79,43,30.56,30.46,30.38,10,8,3,10,1,,0.00,0,,60
2013-1-19,53,42,30,34,28,25,87,61,38,30.40,30.30,30.21,10,10,10,12,5,,0.00,0,,177
2013-1-20,55,42,28,36,31,27,100,73,41,30.25,30.19,30.14,10,10,10,7,1,,0.00,0,,311
2013-1-21,41,32,24,28,20,14,100,65,36,30.26,30.20,30.13,10,10,9,13,3,,0.00,0,,326
2013-1-22,32,26,21,16,10,7,68,51,38,30.39,30.33,30.24,10,10,10,9,4,,0.00,3,,356
2013-1-23,50,39,28,36,23,12,87,57,39,30.36,30.27,30.17,10,10,10,12,2,,0.00,4,,249
2013-1-24,46,35,24,37,21,10,81,57,38,30.41,30.32,30.20,10,10,10,14,7,,0.00,2,,360
2013-1-25,41,37,33,39,30,9,100,77,33,30.29,30.16,30.09,10,6,1,24,10,30,0.00,8,,138
2013-1-26,46,37,28,36,30,27,100,84,50,30.33,30.28,30.21,10,8,2,8,3,,0.00,3,,1
2013-1-27,48,36,24,39,33,25,100,72,58,30.36,30.32,30.27,10,10,5,16,6,,0.00,6,,136
2013-1-28,60,52,44,50,44,32,88,72,57,30.33,30.26,30.20,10,10,10,18,12,,0.00,5,,157
2013-1-29,66,58,51,61,57,48,94,86,77,30.20,30.00,29.81,10,9,6,23,8,32,0.00,6,,154
2013-1-30,69,52,35,63,50,25,100,87,65,29.88,29.66,29.55,10,8,1,22,13,38,0.00,8,,213
2013-1-31,44,37,30,28,24,21,75,61,46,30.14,30.05,29.90,10,10,10,17,11,,0.00,4,,258